Location: ???
(35.5616°N, 139.7977°E)
Time: 19:01:23
(UTC+00:00)

Cosmos 1818 - Pass Details

Date: 17 November 2025
Orbit: 776 x 795 km, 65.0° (Epoch: 08 December)

Event Time Altitude Azimuth Distance (km) Brightness Sun altitude
Rises 20:04:54 0° 210° (SSW) 3,259 6.6 -15.2°
Reaches altitude 10° 20:07:18 10° 211° (SSW) 2,337 5.8 -14.7°
Maximum altitude 20:12:41 82° 299° (WNW) 800 3.5 -13.6°
Drops below altitude 10° 20:18:08 10° 28° (NNE) 2,361 6.2 -12.5°
Sets 20:20:34 0° 29° (NNE) 3,296 7.0 -12.1°
